Weather in Indianapolis

United States     39°46′00″N   86°09′23″W
temp.,
°C
wind,
m/s
gust,
m/s
humid.,
%
clouds,
%
prec.,
mm/h
press.,
hPa
HPBL,
m
18 september, sat
sat1823:00+23wsw11830 0.8 101911
02:00+21w11890 1.3 101911
05:00+21sw11870 0.0 101911
08:00+20nne119155 0.0 102014
11:00+26e1267100 0.1 1021348
14:00+31sse214328 0.2 10191737
17:00+29ssw014868 0.1 1018675
20:00+27e1156100 0.2 101819
19 september, sun
sun1923:00+25ese1158100 0.1 101923
02:00+23se126917 0.1 101947
05:00+21e127578 0.0 101959
08:00+21ese2476100 0.0 1020122
11:00+25se3561100 0.0 1020470
14:00+28se3450100 0.0 1019969
17:00+29ese3544100 0.0 10161693
20:00+25ese2663100 0.0 1017209
20 september, mon
mon2023:00+23se2870100 0.0 1017227
02:00+22s31178100 0.0 1018474
05:00+21sse31088100 0.1 1017517
08:00+20se41098100 3.1 1017618
11:00+20sse41196100 3.1 1018593
14:00+20sse61395100 4.7 1017979
17:00+20sse51196100 0.7 1016836
20:00+20sse51196100 0.7 1017629
21 september, tue
tue2123:00+19sse51294100 0.0 1017564
02:00+19sse4129473 0.1 1017453
05:00+18sse4129559 0.0 1016433
08:00+19sse41095100 0.1 1016434
11:00+20s41192100 0.0 1016644
14:00+24ssw5976100 0.3 10151027
17:00+22wsw41092100 4.4 1014752
20:00+18nw51194100 5.3 1016787
22 september, wed
wed2223:00+16nnw51191100 0.3 1017745
02:00+16nnw511830 0.3 1018924
05:00+14nnw410870 0.0 1019570
08:00+13nw310861 0.0 1020464
11:00+17nnw59530 0.0 10221206
14:00+20nnw69372 0.0 10221774
17:00+19nnw68340 0.0 10211815
20:00+15nnw47505 0.0 1022864